{"data":{"norad_id":60092,"intl_designator":"2024-117B","name":"STARLINK-32044","alt_names":[],"object_type":"PAYLOAD","status":"ACTIVE","operator":null,"country":"US","launch_date":"2024-06-23","launch_site_code":"AFETR","launch_vehicle":null,"mission":null,"orbit_class":"UNKNOWN","rcs_meters":null,"size_class":null,"mass_kg":null,"dimensions":null,"purposes":["comms"],"wikipedia_slug":null,"has_3d_model":false,"image_url":null,"decayed_at":null,"tle_current":{"epoch":"2026-05-25T03:03:17.373024Z","epoch_age_seconds":70935,"freshness":"FRESH","line1":"1 60092U 24117B   26145.12728441  .00001455  00000+0  61256-4 0  9997","line2":"2 60092  53.1610  41.7787 0001256  80.2598 279.8545 15.30196864108591","mean_motion":15.30196864,"eccentricity":0.0001256,"inclination_deg":53.161,"raan_deg":41.7787,"arg_perigee_deg":80.2598,"mean_anomaly_deg":279.8545,"bstar":6.1256e-5,"rev_number":10859,"period_min":94.105538566834,"perigee_km":474.36365077007,"apogee_km":476.08521516203,"semimajor_km":6853.361432966,"source":"CELESTRAK","updated_at":"2026-05-25T13:38:19.159791Z"}}}